sat.trackr.live / text

‹ back to catalog

KUIPER-00229

NORAD 68578 · 2026-072F

PAYLOAD ACTIVE UNKNOWN

§ Identity

Operator
Country
US
Launch date
2026-04-04
Launch site
AFETR
Launch vehicle
Mass (kg)
RCS (m²)

External: N2YO · Heavens-Above · Gunter

§ Orbital elements

Epoch: 2026-05-25T02:53:58.735680Z

Period
97.54 min
Inclination
51.9016°
Eccentricity
0.0002294
Mean motion
14.76350272 rev/d
Perigee alt
639.3 km
Apogee alt
642.5 km
Semi-major
7,019.0 km
B*
3.1035e-4
RAAN
297.2024°
Arg perigee
135.3207°
Mean anomaly
224.7939°
Rev number
771

§ Raw data

KUIPER-002291 68578U 26072F   26145.12081870  .00001960  00000+0  31035-3 0  99962 68578  51.9016 297.2024 0002294 135.3207 224.7939 14.76350272  7710

JSON: /api/v1/satellites/68578 · /tle

For live sub-satellite position, see the globe view (requires WebGL).

§ Visibility from observer

Set your observer location to see the next 7 days of passes ≥ 10°. The values pass through the URL so the page stays shareable.

No JS? Fill the form by hand. The geolocation button needs JavaScript.